| time (UTC) | temp F | wind direction | speed MPH | gust MPH | rain 1hr in | rain 24hr in | rain mn in | humidity % | barometer mb |
| 20260502213704 | 82 | 321 | 13.0 | 22.0 | 0.00 | 0.00 | 0.00 | 15 | 1013.4 |
| 20260502213204 | 81 | 321 | 14.0 | 22.0 | 0.00 | 0.00 | 0.00 | 15 | 1013.5 |
| 20260502212704 | 81 | 304 | 14.0 | 22.0 | 0.00 | 0.00 | 0.00 | 16 | 1013.5 |
| 20260502212205 | 80 | 310 | 15.0 | 22.0 | 0.00 | 0.00 | 0.00 | 16 | 1013.6 |
| 20260502211704 | 80 | 280 | 14.0 | 22.0 | 0.00 | 0.00 | 0.00 | 16 | 1013.8 |
| 20260502211204 | 81 | 329 | 14.0 | 22.0 | 0.00 | 0.00 | 0.00 | 15 | 1013.8 |
| 20260502210704 | 81 | 319 | 13.0 | 24.0 | 0.00 | 0.00 | 0.00 | 16 | 1013.8 |
| 20260502210209 | 81 | 311 | 13.0 | 24.0 | 0.00 | 0.00 | 0.00 | 16 | 1013.8 |
| 20260502205704 | 82 | 312 | 13.0 | 24.0 | 0.00 | 0.00 | 0.00 | 15 | 1013.9 |
| 20260502205204 | 81 | 296 | 14.0 | 21.0 | 0.00 | 0.00 | 0.00 | 15 | 1013.9 |
| 20260502204704 | 81 | 304 | 14.0 | 21.0 | 0.00 | 0.00 | 0.00 | 15 | 1013.9 |
| 20260502204204 | 81 | 323 | 14.0 | 24.0 | 0.00 | 0.00 | 0.00 | 14 | 1014.0 |
| 20260502202704 | 80 | 300 | 16.0 | 26.0 | 0.00 | 0.00 | 0.00 | 14 | 1014.2 |
| 20260502202205 | 81 | 307 | 15.0 | 22.0 | 0.00 | 0.00 | 0.00 | 14 | 1014.3 |
| 20260502201704 | 80 | 294 | 14.0 | 22.0 | 0.00 | 0.00 | 0.00 | 16 | 1014.4 |
| 20260502201204 | 80 | 327 | 14.0 | 23.0 | 0.00 | 0.00 | 0.00 | 16 | 1014.3 |
| 20260502200704 | 81 | 337 | 14.0 | 23.0 | 0.00 | 0.00 | 0.00 | 16 | 1014.5 |
| 20260502200204 | 80 | 311 | 14.0 | 24.0 | 0.00 | 0.00 | 0.00 | 16 | 1014.4 |
| 20260502194704 | 80 | 293 | 14.0 | 22.0 | 0.00 | 0.00 | 0.00 | 15 | 1014.7 |
| 20260502194204 | 80 | 337 | 13.0 | 22.0 | 0.00 | 0.00 | 0.00 | 16 | 1014.7 |
| 20260502193705 | 81 | 326 | 12.0 | 21.0 | 0.00 | 0.00 | 0.00 | 16 | 1014.9 |
| 20260502193204 | 81 | 311 | 13.0 | 20.0 | 0.00 | 0.00 | 0.00 | 16 | 1014.9 |
| 20260502192704 | 80 | 315 | 14.0 | 23.0 | 0.00 | 0.00 | 0.00 | 15 | 1015.0 |
| 20260502192204 | 81 | 308 | 14.0 | 23.0 | 0.00 | 0.00 | 0.00 | 15 | 1015.0 |
| 20260502191704 | 80 | 301 | 14.0 | 23.0 | 0.00 | 0.00 | 0.00 | 15 | 1015.1 |
| 20260502191207 | 80 | 271 | 15.0 | 23.0 | 0.00 | 0.00 | 0.00 | 16 | 1015.2 |
| 20260502190705 | 80 | 313 | 15.0 | 23.0 | 0.00 | 0.00 | 0.00 | 16 | 1015.1 |
| 20260502190204 | 80 | 322 | 15.0 | 23.0 | 0.00 | 0.00 | 0.00 | 16 | 1015.1 |
| 20260502185204 | 80 | 306 | 13.0 | 20.0 | 0.00 | 0.00 | 0.00 | 16 | 1015.1 |
| 20260502184705 | 80 | 309 | 14.0 | 20.0 | 0.00 | 0.00 | 0.00 | 16 | 1015.2 |
| 20260502183204 | 80 | 286 | 13.0 | 20.0 | 0.00 | 0.00 | 0.00 | 17 | 1015.3 |
| 20260502182704 | 79 | 276 | 13.0 | 20.0 | 0.00 | 0.00 | 0.00 | 17 | 1015.3 |
| 20260502182204 | 78 | 267 | 13.0 | 20.0 | 0.00 | 0.00 | 0.00 | 17 | 1015.3 |
| 20260502181704 | 79 | 279 | 14.0 | 20.0 | 0.00 | 0.00 | 0.00 | 17 | 1015.5 |
| 20260502181205 | 79 | 319 | 14.0 | 20.0 | 0.00 | 0.00 | 0.00 | 17 | 1015.5 |
| 20260502180704 | 79 | 358 | 14.0 | 21.0 | 0.00 | 0.00 | 0.00 | 17 | 1015.6 |
| 20260502180205 | 78 | 311 | 14.0 | 25.0 | 0.00 | 0.00 | 0.00 | 17 | 1015.5 |
| 20260502170204 | 77 | 246 | 10.0 | 17.0 | 0.00 | 0.00 | 0.00 | 16 | 1015.5 |
| 20260502164204 | 76 | 238 | 10.0 | 14.0 | 0.00 | 0.00 | 0.00 | 18 | 1015.6 |
| 20260502163704 | 76 | 237 | 10.0 | 14.0 | 0.00 | 0.00 | 0.00 | 18 | 1015.7 |
| 20260502162704 | 76 | 259 | 9.0 | 13.0 | 0.00 | 0.00 | 0.00 | 18 | 1015.7 |
| 20260502161704 | 75 | 230 | 8.0 | 14.0 | 0.00 | 0.00 | 0.00 | 19 | 1015.6 |
| 20260502161204 | 74 | 233 | 8.0 | 15.0 | 0.00 | 0.00 | 0.00 | 19 | 1015.6 |
| 20260502160204 | 74 | 242 | 8.0 | 12.0 | 0.00 | 0.00 | 0.00 | 19 | 1015.7 |
| 20260502152205 | 72 | 238 | 5.0 | 8.0 | 0.00 | 0.00 | 0.00 | 21 | 1015.6 |
| 20260502151704 | 72 | 230 | 4.0 | 11.0 | 0.00 | 0.00 | 0.00 | 23 | 1015.6 |
| 20260502150704 | 71 | 247 | 6.0 | 11.0 | 0.00 | 0.00 | 0.00 | 22 | 1015.6 |
| 20260502150204 | 71 | 240 | 6.0 | 7.0 | 0.00 | 0.00 | 0.00 | 24 | 1015.6 |
| 20260502130704 | 57 | 336 | 5.0 | 8.0 | 0.00 | 0.00 | 0.00 | 35 | 1014.9 |
| 20260502130205 | 57 | 334 | 5.0 | 6.0 | 0.00 | 0.00 | 0.00 | 36 | 1015.0 |
| 20260502123704 | 56 | 331 | 5.0 | 8.0 | 0.00 | 0.00 | 0.00 | 38 | 1014.9 |
| 20260502123204 | 56 | 331 | 5.0 | 8.0 | 0.00 | 0.00 | 0.00 | 38 | 1014.9 |
| 20260502122205 | 56 | 331 | 5.0 | 8.0 | 0.00 | 0.00 | 0.00 | 38 | 1014.9 |
| 20260502121704 | 56 | 331 | 6.0 | 9.0 | 0.00 | 0.00 | 0.00 | 38 | 1014.9 |
| 20260502121205 | 57 | 331 | 6.0 | 9.0 | 0.00 | 0.00 | 0.00 | 38 | 1014.9 |
| 20260502120704 | 57 | 331 | 7.0 | 9.0 | 0.00 | 0.00 | 0.00 | 38 | 1014.9 |
| 20260502120205 | 57 | 331 | 7.0 | 9.0 | 0.00 | 0.00 | 0.00 | 38 | 1014.9 |
| 20260502115704 | 57 | 333 | 6.0 | 8.0 | 0.00 | 0.00 | 0.00 | 38 | 1014.9 |
| 20260502115204 | 58 | 337 | 5.0 | 9.0 | 0.00 | 0.00 | 0.00 | 38 | 1014.9 |
| 20260502114704 | 58 | 338 | 6.0 | 9.0 | 0.00 | 0.00 | 0.00 | 37 | 1014.9 |
| 20260502114204 | 59 | 338 | 6.0 | 9.0 | 0.00 | 0.00 | 0.00 | 37 | 1014.9 |
| 20260502113704 | 59 | 338 | 6.0 | 9.0 | 0.00 | 0.00 | 0.00 | 37 | 1014.9 |
| 20260502113205 | 58 | 339 | 6.0 | 9.0 | 0.00 | 0.00 | 0.00 | 38 | 1014.7 |
| 20260502112704 | 58 | 336 | 7.0 | 9.0 | 0.00 | 0.00 | 0.00 | 39 | 1014.7 |
| 20260502112204 | 59 | 333 | 6.0 | 9.0 | 0.00 | 0.00 | 0.00 | 40 | 1014.9 |
| 20260502111704 | 59 | 331 | 6.0 | 9.0 | 0.00 | 0.00 | 0.00 | 40 | 1014.9 |
| 20260502111204 | 59 | 329 | 5.0 | 9.0 | 0.00 | 0.00 | 0.00 | 41 | 1014.9 |
| 20260502110704 | 59 | 327 | 6.0 | 9.0 | 0.00 | 0.00 | 0.00 | 41 | 1015.0 |
| 20260502110204 | 58 | 327 | 5.0 | 8.0 | 0.00 | 0.00 | 0.00 | 41 | 1014.9 |
| 20260502105704 | 58 | 329 | 5.0 | 8.0 | 0.00 | 0.00 | 0.00 | 42 | 1014.9 |
| 20260502105204 | 58 | 329 | 6.0 | 9.0 | 0.00 | 0.00 | 0.00 | 42 | 1014.9 |
| 20260502104205 | 58 | 330 | 7.0 | 9.0 | 0.00 | 0.00 | 0.00 | 43 | 1014.9 |
| 20260502103704 | 58 | 329 | 7.0 | 9.0 | 0.00 | 0.00 | 0.00 | 44 | 1014.9 |
| 20260502103204 | 57 | 329 | 6.0 | 8.0 | 0.00 | 0.00 | 0.00 | 46 | 1014.7 |
| 20260502102705 | 56 | 318 | 5.0 | 8.0 | 0.00 | 0.00 | 0.00 | 47 | 1014.9 |
| 20260502102204 | 57 | 321 | 4.0 | 8.0 | 0.00 | 0.00 | 0.00 | 47 | 1014.9 |
| 20260502100204 | 58 | 332 | 7.0 | 9.0 | 0.00 | 0.00 | 0.00 | 46 | 1014.7 |
| 20260502091204 | 58 | 334 | 5.0 | 8.0 | 0.00 | 0.00 | 0.00 | 48 | 1015.0 |
| 20260502090704 | 58 | 334 | 5.0 | 6.0 | 0.00 | 0.00 | 0.00 | 49 | 1015.1 |
| 20260502090204 | 58 | 334 | 5.0 | 8.0 | 0.00 | 0.00 | 0.00 | 48 | 1015.1 |
| 20260502071206 | 60 | 324 | 5.0 | 8.0 | 0.00 | 0.00 | 0.00 | 58 | 1015.6 |
| 20260502070704 | 60 | 323 | 5.0 | 6.0 | 0.00 | 0.00 | 0.00 | 59 | 1015.6 |
| 20260502070204 | 61 | 319 | 4.0 | 6.0 | 0.00 | 0.00 | 0.00 | 58 | 1015.6 |
| 20260502065704 | 61 | 313 | 4.0 | 6.0 | 0.00 | 0.00 | 0.00 | 57 | 1015.6 |
| 20260502065206 | 61 | 313 | 3.0 | 6.0 | 0.00 | 0.00 | 0.00 | 56 | 1015.7 |
| 20260502064705 | 62 | 313 | 2.0 | 3.0 | 0.00 | 0.00 | 0.00 | 55 | 1015.6 |
| 20260502064204 | 62 | 313 | 1.0 | 3.0 | 0.00 | 0.00 | 0.00 | 55 | 1015.6 |
| 20260502063704 | 62 | 313 | 1.0 | 3.0 | 0.00 | 0.00 | 0.00 | 55 | 1015.6 |
| 20260502063206 | 62 | 313 | 1.0 | 4.0 | 0.00 | 0.00 | 0.00 | 54 | 1015.5 |
| 20260502062704 | 62 | 313 | 2.0 | 6.0 | 0.00 | 0.00 | 0.00 | 53 | 1015.6 |
| 20260502062204 | 63 | 313 | 3.0 | 6.0 | 0.00 | 0.00 | 0.00 | 52 | 1015.7 |
| 20260502061705 | 63 | 313 | 3.0 | 5.0 | 0.00 | 0.00 | 0.00 | 52 | 1015.7 |
| 20260502061206 | 62 | 346 | 2.0 | 5.0 | 0.00 | 0.00 | 0.00 | 53 | 1015.7 |
| 20260502060704 | 61 | 353 | 2.0 | 4.0 | 0.00 | 0.00 | 0.00 | 53 | 1015.7 |
| 20260502060204 | 61 | 353 | 2.0 | 4.0 | 0.00 | 0.00 | 0.00 | 52 | 1015.6 |
| 20260502055704 | 62 | 353 | 1.0 | 3.0 | 0.00 | 0.00 | 0.00 | 52 | 1015.5 |
| 20260502055205 | 62 | 353 | 1.0 | 2.0 | 0.00 | 0.00 | 0.00 | 51 | 1015.4 |
| 20260502054704 | 62 | 353 | 1.0 | 2.0 | 0.00 | 0.00 | 0.00 | 51 | 1015.4 |
| 20260502054204 | 63 | 353 | 1.0 | 2.0 | 0.00 | 0.00 | 0.00 | 49 | 1015.4 |
| 20260502053704 | 64 | 353 | 0.0 | 2.0 | 0.00 | 0.00 | 0.00 | 46 | 1015.3 |
| 20260502053204 | 64 | 353 | 0.0 | 2.0 | 0.00 | 0.00 | 0.00 | 45 | 1015.2 |
| 20260502052704 | 65 | 353 | 0.0 | 2.0 | 0.00 | 0.00 | 0.00 | 45 | 1015.2 |
| 20260502052204 | 65 | 353 | 1.0 | 3.0 | 0.00 | 0.00 | 0.00 | 44 | 1015.1 |
| 20260502051704 | 65 | 353 | 1.0 | 4.0 | 0.00 | 0.00 | 0.00 | 42 | 1015.1 |
| 20260502050704 | 66 | 353 | 3.0 | 6.0 | 0.00 | 0.00 | 0.00 | 40 | 1015.1 |
| 20260502050204 | 66 | 353 | 3.0 | 6.0 | 0.00 | 0.00 | 0.00 | 44 | 1015.0 |
| 20260502045704 | 65 | 353 | 3.0 | 12.0 | 0.00 | 0.00 | 0.00 | 46 | 1014.9 |
| 20260502045204 | 65 | 94 | 4.0 | 12.0 | 0.00 | 0.00 | 0.00 | 45 | 1015.0 |
| 20260502044705 | 65 | 95 | 7.0 | 12.0 | 0.00 | 0.00 | 0.00 | 46 | 1014.9 |
| 20260502043704 | 65 | 324 | 8.0 | 12.0 | 0.00 | 0.00 | 0.00 | 50 | 1014.6 |
| 20260502043205 | 65 | 317 | 8.0 | 12.0 | 0.00 | 0.00 | 0.00 | 50 | 1014.4 |
| 20260502042704 | 65 | 321 | 8.0 | 10.0 | 0.00 | 0.00 | 0.00 | 51 | 1014.4 |
| 20260502042204 | 65 | 313 | 7.0 | 9.0 | 0.00 | 0.00 | 0.00 | 52 | 1014.4 |
| 20260502041704 | 65 | 315 | 6.0 | 9.0 | 0.00 | 0.00 | 0.00 | 52 | 1014.3 |
| 20260502041206 | 65 | 304 | 5.0 | 9.0 | 0.00 | 0.00 | 0.00 | 51 | 1014.3 |
| 20260502040705 | 65 | 312 | 5.0 | 6.0 | 0.00 | 0.00 | 0.00 | 50 | 1014.2 |
| 20260502040204 | 65 | 320 | 5.0 | 6.0 | 0.00 | 0.00 | 0.00 | 48 | 1014.1 |
| 20260502035704 | 66 | 322 | 4.0 | 6.0 | 0.00 | 0.00 | 0.00 | 46 | 1014.0 |
| 20260502035206 | 66 | 327 | 4.0 | 9.0 | 0.00 | 0.00 | 0.00 | 45 | 1013.9 |
| 20260502034704 | 67 | 326 | 5.0 | 9.0 | 0.00 | 0.00 | 0.00 | 46 | 1013.9 |
| 20260502034204 | 67 | 326 | 6.0 | 9.0 | 0.00 | 0.00 | 0.00 | 44 | 1013.9 |
| 20260502033704 | 67 | 334 | 6.0 | 9.0 | 0.00 | 0.00 | 0.00 | 45 | 1013.8 |
| 20260502033205 | 67 | 331 | 6.0 | 9.0 | 0.00 | 0.00 | 0.00 | 46 | 1013.6 |
| 20260502032704 | 67 | 327 | 5.0 | 8.0 | 0.00 | 0.00 | 0.00 | 47 | 1013.6 |
| 20260502032205 | 67 | 317 | 4.0 | 8.0 | 0.00 | 0.00 | 0.00 | 48 | 1013.5 |
| 20260502031205 | 68 | 311 | 5.0 | 9.0 | 0.00 | 0.00 | 0.00 | 48 | 1013.5 |
| 20260502030704 | 68 | 307 | 5.0 | 9.0 | 0.00 | 0.00 | 0.00 | 47 | 1013.4 |
| 20260502025704 | 69 | 317 | 6.0 | 10.0 | 0.00 | 0.00 | 0.00 | 47 | 1013.3 |
| 20260502025206 | 69 | 329 | 6.0 | 10.0 | 0.00 | 0.00 | 0.00 | 47 | 1013.3 |
| 20260502024704 | 70 | 295 | 4.0 | 8.0 | 0.00 | 0.00 | 0.00 | 45 | 1013.2 |
| 20260502024205 | 70 | 309 | 3.0 | 10.0 | 0.00 | 0.00 | 0.00 | 45 | 1013.3 |
| 20260502023704 | 70 | 309 | 5.0 | 11.0 | 0.00 | 0.00 | 0.00 | 44 | 1013.3 |
| 20260502022704 | 71 | 301 | 6.0 | 12.0 | 0.00 | 0.00 | 0.00 | 43 | 1013.1 |
| 20260502022204 | 71 | 309 | 6.0 | 13.0 | 0.00 | 0.00 | 0.00 | 42 | 1013.1 |
| 20260502021704 | 71 | 307 | 8.0 | 13.0 | 0.00 | 0.00 | 0.00 | 42 | 1013.0 |
| 20260502021204 | 72 | 311 | 9.0 | 15.0 | 0.00 | 0.00 | 0.00 | 42 | 1013.0 |
| 20260502020704 | 72 | 325 | 10.0 | 15.0 | 0.00 | 0.00 | 0.00 | 42 | 1013.0 |
| 20260502015704 | 73 | 321 | 11.0 | 15.0 | 0.00 | 0.00 | 0.00 | 40 | 1012.9 |
| 20260502015204 | 74 | 288 | 11.0 | 15.0 | 0.00 | 0.00 | 0.00 | 39 | 1012.8 |
| 20260502013704 | 77 | 298 | 6.0 | 10.0 | 0.00 | 0.00 | 0.00 | 32 | 1012.6 |
| 20260502012704 | 78 | 308 | 5.0 | 10.0 | 0.00 | 0.00 | 0.00 | 26 | 1012.6 |
| 20260502012204 | 79 | 303 | 3.0 | 6.0 | 0.00 | 0.00 | 0.00 | 26 | 1012.6 |
| 20260502011704 | 80 | 358 | 2.0 | 6.0 | 0.00 | 0.00 | 0.00 | 26 | 1012.6 |
| 20260502011204 | 80 | 358 | 2.0 | 8.0 | 0.00 | 0.00 | 0.00 | 15 | 1012.6 |
| 20260502010704 | 81 | 150 | 2.0 | 10.0 | 0.00 | 0.00 | 0.00 | 15 | 1012.5 |
| 20260502010205 | 81 | 149 | 4.0 | 10.0 | 0.00 | 0.00 | 0.00 | 15 | 1012.5 |
| 20260502005704 | 80 | 142 | 5.0 | 10.0 | 0.00 | 0.00 | 0.00 | 15 | 1012.5 |
| 20260502005204 | 80 | 236 | 5.0 | 10.0 | 0.00 | 0.00 | 0.00 | 14 | 1012.5 |
| 20260502004205 | 80 | 269 | 3.0 | 10.0 | 0.00 | 0.00 | 0.00 | 14 | 1012.5 |
| 20260502003704 | 81 | 225 | 3.0 | 8.0 | 0.00 | 0.00 | 0.00 | 14 | 1012.5 |
| 20260502003204 | 81 | 213 | 3.0 | 11.0 | 0.00 | 0.00 | 0.00 | 15 | 1012.5 |
| 20260502002704 | 81 | 249 | 4.0 | 11.0 | 0.00 | 0.00 | 0.00 | 14 | 1012.5 |
| 20260502002204 | 81 | 230 | 4.0 | 11.0 | 0.00 | 0.00 | 0.00 | 14 | 1012.5 |
| 20260502001704 | 81 | 168 | 3.0 | 9.0 | 0.00 | 0.00 | 0.00 | 14 | 1012.5 |
| 20260502001204 | 81 | 210 | 3.0 | 9.0 | 0.00 | 0.00 | 0.00 | 15 | 1012.5 |
| 20260502000704 | 81 | 290 | 4.0 | 12.0 | 0.00 | 0.00 | 0.00 | 15 | 1012.6 |
| 20260502000204 | 80 | 313 | 5.0 | 12.0 | 0.00 | 0.00 | 0.00 | 14 | 1012.6 |
| 20260501235703 | 80 | 252 | 6.0 | 13.0 | 0.00 | 0.00 | 0.00 | 14 | 1012.6 |
| 20260501235204 | 81 | 269 | 5.0 | 15.0 | 0.00 | 0.00 | 0.00 | 14 | 1012.6 |
| 20260501234704 | 81 | 263 | 6.0 | 15.0 | 0.00 | 0.00 | 0.00 | 14 | 1012.6 |
| 20260501234204 | 81 | 225 | 4.0 | 8.0 | 0.00 | 0.00 | 0.00 | 14 | 1012.6 |
| 20260501233704 | 81 | 203 | 3.0 | 15.0 | 0.00 | 0.00 | 0.00 | 15 | 1012.8 |
| 20260501233204 | 80 | 255 | 5.0 | 15.0 | 0.00 | 0.00 | 0.00 | 15 | 1012.6 |
| 20260501232704 | 80 | 298 | 6.0 | 15.0 | 0.00 | 0.00 | 0.00 | 15 | 1012.8 |
| 20260501232204 | 81 | 257 | 4.0 | 8.0 | 0.00 | 0.00 | 0.00 | 14 | 1012.8 |
| 20260501231704 | 81 | 57 | 4.0 | 13.0 | 0.00 | 0.00 | 0.00 | 15 | 1012.8 |
| 20260501230705 | 81 | 225 | 5.0 | 15.0 | 0.00 | 0.00 | 0.00 | 14 | 1013.0 |
| 20260501230205 | 80 | 245 | 5.0 | 15.0 | 0.00 | 0.00 | 0.00 | 14 | 1013.0 |
| 20260501225704 | 80 | 286 | 6.0 | 15.0 | 0.00 | 0.00 | 0.00 | 15 | 1013.0 |
| 20260501225204 | 80 | 232 | 8.0 | 15.0 | 0.00 | 0.00 | 0.00 | 14 | 1013.1 |
| 20260501224205 | 81 | 223 | 5.0 | 14.0 | 0.00 | 0.00 | 0.00 | 15 | 1013.1 |
| 20260501223704 | 81 | 141 | 4.0 | 12.0 | 0.00 | 0.00 | 0.00 | 15 | 1013.3 |
| 20260501223204 | 81 | 287 | 3.0 | 10.0 | 0.00 | 0.00 | 0.00 | 15 | 1013.4 |
| 20260501222705 | 81 | 221 | 3.0 | 10.0 | 0.00 | 0.00 | 0.00 | 16 | 1013.4 |
| 20260501222204 | 81 | 240 | 3.0 | 10.0 | 0.00 | 0.00 | 0.00 | 15 | 1013.5 |
| 20260501221704 | 82 | 163 | 3.0 | 9.0 | 0.00 | 0.00 | 0.00 | 16 | 1013.5 |
| 20260501221204 | 82 | 59 | 3.0 | 10.0 | 0.00 | 0.00 | 0.00 | 15 | 1013.6 |
| 20260501220704 | 82 | 180 | 3.0 | 10.0 | 0.00 | 0.00 | 0.00 | 15 | 1013.8 |
| 20260501220204 | 82 | 156 | 4.0 | 13.0 | 0.00 | 0.00 | 0.00 | 16 | 1013.8 |
| 20260501215704 | 82 | 161 | 4.0 | 13.0 | 0.00 | 0.00 | 0.00 | 15 | 1013.9 |